Tracking 25193 objects as of 18-Jan-2022
HD Live streaming from Space Station
objects crossing your sky now

SAKURA 2A (CS-2A)

Track SAKURA 2A (CS-2A) now!
SAKURA 2A (CS-2A) is classified as:


NORAD ID: 13782
Int'l Code: 1983-006A
Perigee: 36,000.3 km
Apogee: 36,074.8 km
Inclination: 12.9 °
Period: 1,448.6 minutes
Semi major axis: 42408 km
RCS: 5.8102 m2 (large)
Launch date: February 4, 1983
Source: Japan (JPN)
Launch site: TANEGASHIMA SPACE CENTER (TNSTA)
aabbcc
Your satellite tracking list
Your tracking list is empty




NASA's NSSDC Master Catalog

Two Line Element Set (TLE):
1 13782U 83006A   22017.72524108 -.00000259  00000-0  00000+0 0  9995
2 13782  12.9014 332.4864 0008777 302.7497  63.1338  0.99408307111873
Source of the keplerian elements: AFSPC